This demonstration page uses our WeatherBlox Daily Observations layout. Learn more.

Left ArrowRight Arrow

44.8408, -93.29828

Hourly Observations for August 27, 2019

Temp ( °F °C ) Dew Point ( °F °C ) Humidity (%) Winds ( mph kmh ) Pressure ( in mb ) Visibility ( mi km ) Precip ( " mm )
12:53 am 00:53 Clear 64 17.8 56 13.3 75 75 W 7 11 29.71 1006 10 16 0.00 0.00
1:53 am 01:53 Partly Cloudy 62 16.7 56 13.3 80 80 WNW 5 7 29.71 1006 10 16 0.00 0.00
2:53 am 02:53 Mostly Clear 62 16.7 55 12.8 78 78 W 6 9 29.72 1006 10 16 0.00 0.00
3:53 am 03:53 Clear 62 16.7 55 12.8 78 78 WSW 7 11 29.72 1007 10 16 0.00 0.00
4:53 am 04:53 Clear 60 15.6 55 12.8 84 84 SW 6 9 29.72 1007 10 16 0.00 0.00
5:53 am 05:53 Clear 60 15.6 55 12.8 84 84 WSW 8 13 29.72 1006 10 16 0.00 0.00
6:53 am 06:53 Mostly Sunny 59 15 55 12.8 87 87 SW 8 13 29.72 1007 10 16 0.00 0.00
7:53 am 07:53 Mostly Sunny 60 15.6 54 12.2 80 80 WSW 10 17 29.74 1007 10 16 0.00 0.00
8:53 am 08:53 Mostly Cloudy 63 17.2 54 12.2 73 73 W 15 24 29.75 1008 10 16 0.00 0.00
9:53 am 09:53 Mostly Cloudy 65 18.3 54 12.2 68 68 W 14 22 29.76 1008 10 16 0.00 0.00
10:53 am 10:53 Mostly Cloudy 67 19.4 52 11.1 59 59 W 13 20 29.78 1008 10 16 0.00 0.00
11:53 am 11:53 Partly Cloudy 70 21.1 52 11.1 53 53 W 18 30 29.77 1008 10 16 0.00 0.00
12:53 pm 12:53 Partly Cloudy 72 22.2 52 11.1 50 50 W 16 26 29.76 1008 10 16 0.00 0.00
1:40 pm 13:40 Mostly Cloudy with Nearby Thunderstorms 70 21.1 48 8.9 46 46 WSW 25 41 29.73 1007 10 16 0.00 0.00
1:51 pm 13:51 Mostly Cloudy with Thunderstorms 64 18 52 11 64 64 W 15 24 29.75 1008 8 13 0.00 0.00
1:53 pm 13:53 Mostly Cloudy with Thunderstorms 65 18.3 52 11.1 63 63 W 13 20 29.76 1008 8 13 0.00 0.00
2:06 pm 14:06 Mostly Cloudy with Nearby Thunderstorms 68 20 53 11.7 59 59 W 16 26 29.74 1007 10 16 0.00 0.00
2:24 pm 14:24 Mostly Cloudy 68 20 49 9.4 51 51 WSW 17 28 29.74 1007 10 16 0.00 0.00
2:53 pm 14:53 Mostly Cloudy 71 21.7 49 9.4 46 46 W 21 33 29.74 1007 10 16 0.00 0.00
3:02 pm 15:02 Mostly Cloudy with Nearby Thunderstorms 72 22.2 49 9.4 44 44 W 22 35 29.72 1006 10 16 0.00 0.00
3:17 pm 15:17 Mostly Cloudy 73 22.8 47 8.3 40 40 W 23 37 29.72 1006 10 16 0.00 0.00
3:53 pm 15:53 Mostly Cloudy 73 22.8 45 7.2 37 37 W 25 41 29.74 1007 10 16 0.00 0.00
4:53 pm 16:53 Mostly Cloudy 72 22.2 47 8.3 41 41 WSW 24 39 29.74 1007 10 16 0.00 0.00
5:53 pm 17:53 Mostly Cloudy 69 20.6 48 8.9 47 47 WNW 22 35 29.76 1008 10 16 0.00 0.00
6:53 pm 18:53 Cloudy 67 19.4 48 8.9 51 51 W 22 35 29.78 1008 10 16 0.00 0.00
7:53 pm 19:53 Mostly Cloudy 65 18.3 50 10 59 59 W 21 33 29.79 1009 10 16 0.00 0.00
8:53 pm 20:53 Mostly Cloudy 63 17.2 51 10.6 65 65 W 18 30 29.80 1009 10 16 0.00 0.00
9:53 pm 21:53 Mostly Cloudy 63 17.2 52 11.1 68 68 W 13 20 29.80 1009 10 16 0.00 0.00
10:53 pm 22:53 Mostly Cloudy 63 17.2 52 11.1 68 68 W 15 24 29.79 1009 10 16 0.00 0.00
11:53 pm 23:53 Mostly Cloudy 61 16.1 53 11.7 75 75 W 15 24 29.80 1009 10 16 0.00 0.00

Powered by AerisWeather